Weather History for KIEN - March, 2014

Change the Weather History Date:

Tuesday, March 11, 2014

  Actual Average Record
Temperature  
Mean Temperature 33 °F 35 °F  
Max Temperature 41 °F 49 °F 74 °F (2015)
Min Temperature 24 °F 21 °F -27 °F (1998)
Degree Days  
Heating Degree Days 32 30  
Month to date heating degree days 368 354  
Since 1 July heating degree days 5850 5704  
Cooling Degree Days 0 0  
Month to date cooling degree days 0 0  
Year to date cooling degree days 0 0  
Moisture  
Dew Point 30 °F    
Average Humidity 75    
Maximum Humidity 96    
Minimum Humidity 54    
Precipitation  
Precipitation 0.02 in 0.02 in 0.17 in (2001)
Month to date precipitation 0.16 0.22  
Year to date precipitation 0.43 1.01  
Sea Level Pressure  
Sea Level Pressure 29.98 in    
Wind  
Wind Speed 14 mph (North)    
Max Wind Speed 26 mph    
Max Gust Speed 36 mph    
Visibility 6 miles    
Events Rain , Snow    
T = Trace of Precipitation, MM = Missing Value Source: NWS Daily Summary

Daily Weather History Graph

Daily Weather History Graph

Search for Another Location

Airport or City:

Trip Planner

Search our weather history database for the weather conditions in past years. The results will help you decide how hot, cold, wet, or windy it might be!

Date:

Astronomy

Mar. 11, 2014 Rise Set
Actual Time 7:09 AM MDT 6:51 PM MDT
Civil Twilight 6:40 AM MDT 7:20 PM MDT
Nautical Twilight 6:07 AM MDT 7:52 PM MDT
Astronomical Twilight 5:34 AM MDT 8:26 PM MDT
Moon 2:24 PM MDT (3/11) 4:09 AM MDT (3/11)
Length of Visible Light 12h 39m
Length of Day
11h 42m
Waxing Gibbous, 78% of the Moon is Illuminated
Mar 11
Waxing Gibbous
Mar 16
Full
Mar 23
Last Quarter
Mar 30
New
Apr 7
First Quarter

Hourly Weather History & Observations

Time (MDT) Temp. Windchill Dew Point Humidity Pressure Visibility Wind Dir Wind Speed Gust Speed Precip Events Conditions
12:23 AM 42.1 °F 34.9 °F 39.0 °F 89% 29.68 in 10.0 mi North 13.8 mph 21.9 mph N/A   Overcast
12:52 AM 39.9 °F 32.9 °F 37.0 °F 89% 29.66 in 10.0 mi NE 11.5 mph - N/A   Overcast
1:29 AM 39.0 °F 30.6 °F 34.0 °F 82% 29.68 in 10.0 mi NE 15.0 mph 21.9 mph N/A   Overcast
1:52 AM 37.0 °F 26.7 °F 30.9 °F 79% 29.68 in 10.0 mi NNE 19.6 mph 26.5 mph N/A   Overcast
2:52 AM 36.0 °F 26.0 °F 30.9 °F 82% 29.70 in 10.0 mi NNE 17.3 mph - N/A   Overcast
3:12 AM 35.1 °F 25.5 °F 30.9 °F 85% 29.72 in 10.0 mi NNE 15.0 mph 23.0 mph N/A   Overcast
3:52 AM 35.1 °F 25.5 °F 32.0 °F 89% 29.73 in 10.0 mi NNE 15.0 mph 24.2 mph N/A   Overcast
4:22 AM 34.0 °F 23.4 °F 32.0 °F 92% 29.76 in 10.0 mi NNE 17.3 mph - N/A   Overcast
4:52 AM 33.1 °F 23.4 °F 32.0 °F 96% 29.78 in 4.0 mi NNE 13.8 mph 19.6 mph 0.00 in   Overcast
5:05 AM 33.1 °F 23.4 °F 30.9 °F 92% 29.78 in 4.0 mi NNE 13.8 mph 23.0 mph 0.00 in Rain Light Rain
5:34 AM 33.1 °F 21.2 °F 30.9 °F 92% 29.79 in 4.0 mi NE 20.7 mph 27.6 mph 0.00 in Rain Light Rain
5:52 AM 32.0 °F 20.1 °F 30.9 °F 96% 29.81 in 4.0 mi NNE 19.6 mph 27.6 mph 0.00 in Rain Light Rain
5:56 AM 32.0 °F 20.5 °F 30.9 °F 96% 29.81 in 5.0 mi NNE 18.4 mph 26.5 mph 0.00 in Rain Light Freezing Rain
6:34 AM 32.0 °F 22.1 °F 30.0 °F 92% 29.84 in 5.0 mi NNE 13.8 mph 21.9 mph 0.00 in Rain Light Freezing Rain
6:42 AM 32.0 °F 22.1 °F 30.0 °F 92% 29.85 in 5.0 mi NNE 13.8 mph 23.0 mph 0.00 in Rain Light Freezing Rain
6:50 AM 32.0 °F 22.1 °F 30.2 °F 93% 29.86 in 3.0 mi NNE 13.8 mph - 0.00 in   Overcast
6:52 AM 32.0 °F 23.6 °F 30.0 °F 92% 29.88 in 3.0 mi North 10.4 mph - 0.00 in Snow Light Snow
7:00 AM 32.0 °F 22.1 °F 30.0 °F 92% 29.87 in 2.5 mi NNE 13.8 mph - 0.00 in Snow Light Snow
7:19 AM 32.0 °F 22.1 °F 30.0 °F 92% 29.88 in 3.0 mi North 13.8 mph - 0.00 in Snow Light Snow
7:33 AM 32.0 °F 23.0 °F 30.0 °F 92% 29.89 in 1.8 mi NNE 11.5 mph - 0.00 in Snow Light Snow
7:52 AM 32.0 °F 21.6 °F 30.0 °F 92% 29.93 in 1.8 mi North 15.0 mph - 0.00 in Snow Light Snow
8:01 AM 32.0 °F 22.1 °F 30.0 °F 92% 29.91 in 2.5 mi North 13.8 mph - 0.00 in Snow Light Snow
8:11 AM 32.0 °F 23.6 °F 30.0 °F 92% 29.92 in 1.8 mi North 10.4 mph - 0.00 in Snow Light Snow
8:18 AM 32.0 °F 23.6 °F 30.0 °F 92% 29.93 in 1.5 mi North 10.4 mph - 0.00 in Snow Light Snow
8:38 AM 32.0 °F 21.6 °F 30.0 °F 92% 29.94 in 1.5 mi North 15.0 mph - 0.00 in Snow Light Snow
8:52 AM 32.0 °F 21.2 °F 30.0 °F 92% 29.98 in 3.0 mi North 16.1 mph 24.2 mph 0.00 in Snow Light Snow
9:05 AM 32.0 °F 20.8 °F 30.0 °F 92% 29.97 in 2.0 mi North 17.3 mph - 0.00 in Snow Light Snow
9:11 AM 32.0 °F 21.6 °F 30.0 °F 92% 29.97 in 1.2 mi North 15.0 mph - 0.00 in Snow Light Snow
9:35 AM 32.0 °F 20.5 °F 30.0 °F 92% 29.99 in 1.0 mi North 18.4 mph 26.5 mph 0.00 in Snow Light Snow
9:39 AM 32.0 °F 20.5 °F 30.0 °F 92% 29.99 in 0.8 mi North 18.4 mph 26.5 mph 0.00 in Snow Light Snow
9:52 AM 32.0 °F 20.8 °F 30.0 °F 92% 30.04 in 1.0 mi North 17.3 mph 24.2 mph 0.01 in Snow Light Snow
10:00 AM 32.0 °F 21.6 °F 30.0 °F 92% 30.01 in 1.2 mi North 15.0 mph 26.5 mph 0.00 in Snow Light Snow
10:38 AM 33.1 °F 23.0 °F 30.9 °F 92% 30.03 in 0.8 mi North 15.0 mph - 0.00 in Snow Light Snow
10:45 AM 34.0 °F 23.8 °F 30.9 °F 89% 30.04 in 1.2 mi North 16.1 mph - 0.00 in Snow Light Snow
10:52 AM 33.1 °F 23.4 °F 30.9 °F 92% 30.09 in 1.2 mi North 13.8 mph 24.2 mph 0.00 in Snow Light Snow
11:23 AM 35.1 °F 24.5 °F 30.9 °F 85% 30.06 in 2.5 mi North 18.4 mph 23.0 mph 0.01 in Snow Light Snow
11:27 AM 35.1 °F 24.1 °F 32.0 °F 89% 30.06 in 3.0 mi North 19.6 mph 26.5 mph 0.01 in Snow Light Snow
11:34 AM 35.1 °F 24.1 °F 32.0 °F 89% 30.07 in 7.0 mi North 19.6 mph 27.6 mph 0.01 in Snow Light Snow
11:52 AM 36.0 °F 25.3 °F 33.1 °F 89% 30.12 in 10.0 mi North 19.6 mph 27.6 mph 0.01 in   Overcast
12:52 PM 36.0 °F 24.4 °F 30.0 °F 79% 30.15 in 10.0 mi North 23.0 mph 32.2 mph N/A   Overcast
1:52 PM 37.9 °F 27.3 °F 30.0 °F 73% 30.17 in 10.0 mi North 21.9 mph 31.1 mph N/A   Overcast
2:29 PM 39.0 °F 28.8 °F 28.9 °F 67% 30.13 in 10.0 mi North 21.9 mph 27.6 mph N/A   Mostly Cloudy
2:52 PM 39.0 °F 28.8 °F 27.0 °F 62% 30.20 in 10.0 mi North 21.9 mph 35.7 mph N/A   Mostly Cloudy
3:52 PM 39.0 °F 28.8 °F 25.0 °F 57% 30.22 in 10.0 mi North 21.9 mph 29.9 mph N/A   Scattered Clouds
4:52 PM 37.9 °F 28.2 °F 24.1 °F 57% 30.25 in 10.0 mi North 18.4 mph 29.9 mph N/A   Scattered Clouds
5:52 PM 37.9 °F 28.2 °F 24.1 °F 57% 30.28 in 10.0 mi North 18.4 mph 29.9 mph N/A   Partly Cloudy
6:52 PM 36.0 °F 28.0 °F 24.1 °F 62% 30.31 in 10.0 mi NNW 11.5 mph - N/A   Clear
7:52 PM 32.0 °F 26.4 °F 23.0 °F 69% 30.34 in 10.0 mi NNW 5.8 mph - N/A   Clear
8:52 PM 28.0 °F 22.8 °F 21.9 °F 78% 30.35 in 10.0 mi SSW 4.6 mph - N/A   Clear
9:52 PM 25.0 °F 18.1 °F 21.9 °F 88% 30.36 in 10.0 mi SSW 5.8 mph - N/A   Scattered Clouds
10:52 PM 28.0 °F - 23.0 °F 81% 30.35 in 10.0 mi Calm Calm - N/A   Mostly Cloudy
11:52 PM 28.0 °F 22.8 °F 21.0 °F 75% 30.33 in 10.0 mi West 4.6 mph - N/A   Overcast